Theta_e
324 323 322 324 322 320 322 321 320 324 328 329 326 325 327 327 327 329 329 329 334 340 343 348 351 350 350 349 349 350 352 354 355 354 354 353 353 353 351 350 349 348 349 349 349 350 350 351 351 351 349 345 342 341 342 342 343 343 343 343 342 340 337
322 324 324 324 324 323 321 319 321 324 327 329 328 325 326 326 325 325 326 326 327 330 336 347 353 351 351 349 348 351 353 354 355 354 354 354 354 353 352 351 350 349 350 350 350 350 349 350 351 349 344 342 342 342 342 342 343 343 343 343 343 341 338
322 324 324 322 323 325 323 322 324 323 321 322 325 325 325 325 324 323 324 326 325 325 333 346 352 353 353 351 350 352 353 354 355 355 354 354 353 353 353 352 351 351 350 351 351 350 349 350 350 349 345 343 343 342 342 344 344 344 346 348 348 345 342
323 322 322 319 320 323 324 324 325 323 322 321 322 324 324 323 322 322 323 324 324 329 340 349 353 354 354 353 352 352 353 355 355 355 355 354 354 354 354 353 351 350 349 350 351 350 350 350 350 350 348 344 343 342 342 344 347 348 349 350 350 348 346
321 320 321 320 320 322 321 320 321 321 321 322 323 323 322 322 321 322 323 322 324 339 353 355 354 354 354 354 354 354 354 354 354 354 355 354 354 353 354 353 351 350 349 348 350 349 348 349 348 347 346 343 342 342 341 342 345 349 350 351 351 350 350
318 320 323 323 323 324 322 320 320 320 321 320 320 321 321 322 321 321 322 321 329 345 352 351 352 352 353 355 354 354 354 354 354 354 353 355 354 353 354 353 351 351 350 348 350 351 348 346 346 344 343 342 342 342 342 341 342 345 349 352 351 349 349
320 322 324 324 324 325 324 323 322 323 323 319 317 318 320 321 321 322 323 322 333 347 348 348 352 352 353 355 354 354 354 353 354 353 353 354 355 355 355 353 353 352 351 348 349 349 346 344 343 342 341 341 341 341 341 341 341 341 346 351 351 346 344
322 322 323 323 324 324 324 324 324 324 323 321 321 321 322 321 319 322 323 322 332 347 349 350 353 351 354 354 354 355 354 354 354 353 354 355 356 356 355 354 354 353 350 349 348 347 345 344 343 342 342 341 341 341 341 341 342 341 343 348 348 344 343
320 320 321 321 322 323 323 323 325 325 325 325 325 324 325 323 319 322 322 320 333 346 348 349 351 351 353 354 355 355 355 355 355 355 357 356 355 356 354 354 356 352 349 349 348 347 346 346 345 344 344 344 342 342 342 341 342 343 342 344 345 342 343
317 318 319 318 320 322 323 324 326 326 325 325 324 322 321 319 321 325 321 321 336 348 347 347 349 349 350 353 354 354 355 355 355 355 356 356 356 356 355 355 356 354 352 350 348 347 348 347 346 346 345 345 345 343 342 343 344 345 343 343 344 343 343
319 320 321 321 322 323 322 323 326 327 326 327 327 322 319 320 323 323 323 327 338 345 347 348 349 347 349 352 353 352 354 354 354 355 355 354 355 355 355 356 356 355 354 352 350 348 348 347 345 346 345 345 345 345 343 343 346 347 345 343 343 343 343
321 322 322 322 324 324 324 325 327 328 329 329 326 322 323 327 322 320 330 335 333 339 348 349 348 348 349 351 352 351 353 353 353 354 353 353 354 354 355 355 355 355 355 354 353 352 350 349 347 346 346 347 346 346 345 344 346 348 348 346 344 344 344
321 322 321 322 324 325 327 328 328 330 331 330 328 327 332 336 327 325 338 339 330 336 348 347 346 348 348 349 350 351 351 351 351 352 352 353 352 352 352 353 353 354 354 354 354 353 353 352 350 348 347 347 347 346 345 345 346 346 346 346 346 346 347
321 322 321 322 323 324 326 328 329 331 332 332 333 334 336 338 335 334 339 341 339 343 348 346 346 347 347 348 349 350 350 350 350 351 351 351 351 351 351 351 351 352 352 353 352 353 353 353 353 352 350 349 349 347 346 347 348 348 347 346 346 346 346
320 322 322 321 322 323 323 325 328 330 332 333 335 337 338 337 339 340 339 342 346 348 347 347 347 347 348 348 348 350 350 349 349 349 349 349 349 350 350 350 350 350 351 352 351 351 352 352 352 352 351 351 350 349 349 349 351 351 349 349 348 346 345
319 321 322 321 321 322 321 323 328 330 330 332 334 338 339 338 340 342 340 340 344 347 347 346 347 347 348 347 348 349 348 348 349 348 349 349 348 348 348 349 349 349 349 350 350 350 351 351 352 352 351 351 350 350 350 349 350 350 349 349 349 348 348
318 320 322 321 320 320 319 322 327 330 331 332 335 336 338 340 341 340 338 339 344 347 345 344 346 347 348 347 348 348 347 347 348 347 347 347 346 346 346 346 346 346 346 347 348 349 350 350 350 351 350 350 350 350 349 349 349 349 349 350 349 349 349
319 321 322 320 319 318 319 322 326 329 330 331 334 336 337 338 339 338 339 341 344 345 343 344 345 346 347 347 346 346 346 346 346 346 346 345 345 345 344 344 344 344 344 344 345 346 347 346 347 348 347 347 347 348 348 348 348 348 349 350 349 349 350
320 322 321 319 318 319 320 322 323 326 328 329 333 337 338 337 338 338 340 340 342 344 344 344 345 345 345 344 344 344 344 344 346 345 343 343 343 342 341 341 341 341 342 341 341 341 341 340 341 342 343 344 344 345 345 346 346 347 348 349 349 349 349
320 320 319 319 320 321 321 321 322 325 327 328 332 335 335 336 337 339 340 341 343 345 344 343 343 343 342 341 342 343 343 343 344 342 342 342 341 339 338 338 339 339 339 339 338 338 337 337 338 338 339 340 340 340 342 343 344 345 346 347 348 348 348
319 317 317 321 322 321 321 322 322 324 325 325 327 331 334 336 338 340 340 341 342 343 343 341 340 339 340 339 339 340 341 342 341 340 340 339 336 335 333 332 332 332 330 329 330 330 330 330 331 333 335 337 338 338 339 340 342 342 343 344 344 344 345
319 317 317 320 320 320 322 323 322 324 324 323 324 328 332 336 339 340 340 340 342 341 341 340 338 338 340 339 336 335 337 339 339 338 337 335 333 330 327 324 322 320 318 318 318 318 319 318 318 322 327 332 335 336 336 337 338 339 340 340 341 341 342
318 317 316 318 319 322 324 324 323 324 323 322 324 326 329 333 338 340 340 340 340 340 339 338 338 340 342 340 335 333 335 336 336 334 333 331 329 327 324 321 319 319 318 317 317 316 316 317 318 319 320 323 326 328 330 330 330 331 332 333 334 334 334
317 317 315 317 321 324 325 324 323 323 322 322 323 324 325 329 334 338 340 339 340 340 337 336 336 338 338 337 333 331 332 334 334 333 331 328 326 326 324 322 321 321 320 320 320 320 319 320 321 320 317 317 317 320 323 324 324 325 326 327 328 328 328
316 316 315 317 322 325 325 324 323 323 322 321 320 322 324 325 329 336 338 338 339 339 336 336 337 335 334 332 330 328 330 331 331 332 332 330 329 329 327 324 324 323 322 320 320 320 319 319 319 318 316 315 315 316 317 318 319 322 323 324 325 325 325
317 317 316 317 321 325 325 325 325 325 324 322 321 324 326 325 328 335 338 337 338 338 336 337 337 334 332 331 330 330 330 330 330 331 331 330 331 330 328 327 326 325 322 321 320 320 319 319 318 317 314 313 314 315 314 314 314 316 317 318 318 318 318
317 316 315 316 320 324 325 325 326 326 326 324 324 326 327 327 331 335 336 336 337 337 336 337 336 333 330 330 330 331 332 331 330 330 330 330 330 329 328 327 326 324 323 322 322 321 321 321 320 317 314 312 312 313 312 312 312 312 312 312 312 312 311
317 316 317 319 322 324 325 325 326 325 324 324 325 326 326 329 333 334 334 335 336 335 336 335 334 332 330 329 329 330 331 330 329 329 331 331 329 328 326 325 324 324 323 322 321 320 319 318 318 316 313 311 311 310 309 308 309 308 308 308 307 307 307
319 319 321 323 325 325 324 324 324 323 323 324 324 325 326 329 332 334 333 334 334 333 333 332 331 329 328 327 328 328 329 329 328 329 330 331 330 329 326 323 322 322 321 321 319 316 314 314 314 312 311 309 308 307 306 306 306 305 305 305 305 305 306
321 322 324 325 325 325 324 324 323 323 323 323 324 327 328 329 331 332 332 332 331 330 330 329 328 327 325 325 325 326 326 326 326 326 327 327 327 327 324 322 321 320 319 320 319 315 311 311 310 309 307 307 306 305 305 305 305 305 304 304 305 305 305
320 322 325 326 325 324 324 325 324 323 323 323 324 327 329 329 330 331 331 330 329 328 328 328 327 327 326 324 323 324 324 324 324 324 324 324 324 324 322 321 321 319 317 318 318 315 311 310 309 308 306 305 305 305 305 305 305 305 304 305 305 304 305
320 323 326 325 324 324 324 324 324 323 323 323 324 326 328 329 329 330 329 329 329 328 328 327 326 327 326 324 323 323 323 323 324 323 323 323 323 323 321 320 319 318 315 313 313 312 310 308 307 306 305 305 304 305 305 305 305 305 304 305 304 304 306
321 323 325 324 324 324 324 323 323 324 324 323 322 324 326 327 328 328 328 328 329 329 328 327 326 325 325 325 324 323 322 323 323 322 322 323 323 322 321 319 317 315 313 311 311 311 310 308 307 306 305 305 304 305 305 305 305 305 304 305 304 305 310
320 323 325 325 325 325 324 323 323 324 324 323 322 322 323 324 325 326 326 326 327 328 328 327 327 326 325 324 323 322 322 322 322 322 322 322 322 321 320 319 317 313 312 311 311 311 310 309 307 306 306 306 305 305 305 304 305 305 304 305 304 304 308
322 324 325 325 325 325 324 323 323 324 324 325 324 323 322 322 322 323 324 324 325 326 327 327 327 327 326 325 324 324 323 321 321 322 322 321 321 320 319 319 317 314 312 311 312 312 311 310 309 308 307 307 307 307 307 306 306 306 304 305 305 303 303
324 324 325 325 325 325 324 323 323 323 323 324 324 324 323 323 322 322 322 322 322 323 324 325 326 326 327 326 325 324 323 321 321 322 322 320 320 320 319 318 317 315 313 312 313 312 311 311 310 309 309 309 309 309 309 308 308 307 306 305 305 304 303
325 325 325 324 324 324 323 323 323 322 322 323 323 322 322 321 322 322 323 322 321 322 322 323 323 322 324 326 326 325 324 322 320 321 321 320 320 320 318 318 317 315 313 312 313 313 312 311 310 310 310 311 311 311 311 311 310 310 309 308 306 305 304
Wind_Speed
10 14 15 13 9 4 6 8 10 8 6 7 6 6 5 5 6 5 6 6 3 5 5 5 4 4 5 6 9 13 14 16 20 22 25 27 26 25 24 23 23 23 23 22 22 22 21 19 19 20 22 23 22 21 21 20 20 18 17 16 16 18 19
11 10 10 14 14 8 4 6 10 7 3 6 6 6 6 6 8 5 6 8 8 6 4 3 5 5 5 5 8 12 14 15 18 21 24 26 27 26 25 23 23 22 22 22 22 22 20 19 19 21 23 23 21 21 21 21 21 20 18 17 16 17 18
11 9 7 10 13 13 7 4 6 8 5 6 7 6 7 7 8 6 7 8 8 7 4 5 6 5 6 5 7 10 13 14 17 19 21 23 24 24 25 24 22 21 21 22 22 22 20 19 20 20 23 24 23 22 21 21 21 20 18 17 16 17 17
8 9 8 8 10 12 9 6 5 7 6 6 7 7 7 7 8 7 7 7 6 4 2 6 7 6 5 6 7 8 11 13 15 17 19 22 23 24 24 22 21 22 24 22 21 22 21 20 21 21 22 25 24 23 22 21 20 19 18 17 17 17 17
7 8 9 10 8 10 11 8 7 8 6 6 6 7 8 7 8 7 6 7 5 2 4 6 8 6 4 4 6 7 10 12 13 15 19 22 25 25 24 23 24 25 27 26 22 22 23 22 23 23 23 24 25 24 24 22 21 19 18 18 18 17 16
7 6 7 7 5 5 10 10 9 9 8 7 6 8 9 7 8 6 6 7 2 4 3 4 7 6 4 4 6 7 9 10 11 14 17 20 22 22 22 25 26 25 25 26 20 19 23 24 24 25 23 23 24 24 24 23 23 21 19 18 19 19 17
3 4 4 3 5 5 7 8 10 9 8 9 9 8 8 7 9 8 5 6 1 4 3 4 6 6 6 6 7 8 8 8 10 12 14 16 18 19 21 23 24 23 24 26 22 20 23 24 24 24 23 22 22 22 23 23 22 22 21 19 20 21 19
1 4 4 3 2 6 8 8 9 8 7 9 8 8 7 7 10 8 6 7 3 5 3 4 5 7 7 6 7 8 9 8 9 10 12 14 15 17 19 20 21 23 24 25 25 26 25 24 23 22 22 22 22 22 23 23 21 21 21 21 22 23 20
6 6 6 6 6 8 7 5 4 5 7 8 6 6 5 6 10 10 9 8 3 5 4 4 6 7 7 7 7 7 8 9 9 9 10 12 13 16 18 17 17 22 25 26 26 26 24 24 24 24 24 23 22 22 22 22 21 19 20 22 24 24 22
6 5 4 4 4 6 4 2 1 3 8 9 7 6 6 7 8 8 10 7 4 7 6 6 7 6 6 7 7 7 7 7 9 10 9 10 12 14 16 15 14 17 20 23 25 24 23 24 24 25 26 23 21 22 22 21 19 18 20 21 22 22 22
0 2 3 3 2 2 3 2 2 3 5 7 7 8 8 8 7 8 9 7 4 7 8 8 8 8 7 7 7 8 7 7 8 10 10 10 11 12 13 13 12 13 14 17 20 22 23 25 25 25 24 23 22 23 25 24 21 18 20 21 20 20 21
6 6 8 5 3 2 2 2 1 2 3 5 9 9 5 5 8 8 6 8 8 8 10 10 9 9 8 8 8 7 8 7 8 9 9 10 11 11 11 10 11 12 12 13 15 15 17 20 24 26 25 24 25 25 26 27 24 21 20 20 20 20 21
7 7 8 7 5 5 4 3 3 1 3 4 7 6 4 4 6 4 3 9 10 7 10 10 9 9 8 8 8 6 7 7 7 8 9 10 10 10 9 9 9 10 10 11 12 11 11 13 16 21 24 25 25 25 25 25 25 24 24 23 22 21 20
7 7 8 7 5 5 5 6 6 4 3 2 1 0 4 4 3 3 3 7 3 4 9 9 9 10 10 9 8 7 7 7 6 7 8 9 9 9 8 9 10 10 9 10 11 11 10 10 10 11 15 17 18 19 20 19 19 21 22 23 23 22 23
6 5 5 5 4 2 4 7 8 7 5 4 4 4 5 3 2 2 3 6 5 6 8 10 10 11 11 10 9 8 7 7 7 6 7 8 9 9 9 10 11 11 10 10 12 12 11 11 11 11 12 14 15 16 18 17 16 17 18 18 19 21 23
6 2 2 1 0 2 2 7 10 10 8 6 5 5 6 4 2 0 4 5 4 5 7 9 11 11 12 11 10 9 8 7 7 8 9 10 11 11 11 11 11 11 10 11 12 12 11 11 12 12 12 13 14 15 17 17 16 16 17 17 18 18 20
6 3 4 5 4 6 3 5 8 8 8 8 6 5 6 5 3 2 2 1 3 5 7 7 9 10 11 11 9 9 9 8 8 9 11 12 12 12 12 12 12 11 11 11 12 12 12 11 11 10 9 10 12 14 16 17 16 17 17 17 18 19 19
6 4 4 5 5 5 1 4 5 6 7 8 7 6 6 4 4 3 2 3 3 5 7 7 8 9 9 10 9 8 9 9 10 11 11 12 12 12 12 12 12 12 13 13 13 12 11 10 9 8 6 5 7 9 11 13 16 19 20 19 19 20 19
4 3 5 8 6 2 3 5 5 5 5 5 4 5 5 4 4 4 2 1 2 6 7 9 10 9 8 9 8 8 9 9 11 13 13 13 13 13 13 13 14 15 15 15 15 13 12 12 11 10 9 7 7 7 6 8 12 16 20 20 21 22 22
3 4 7 7 2 3 5 3 5 6 4 5 3 1 3 4 3 3 2 2 4 7 8 11 10 9 10 10 8 8 8 9 12 13 13 13 13 13 13 14 16 16 16 16 17 17 16 15 15 13 12 11 11 10 9 9 9 10 12 15 17 17 17
4 6 6 4 2 3 4 2 5 5 4 6 5 1 3 4 3 3 4 4 6 8 9 10 11 12 13 11 9 8 8 9 12 13 14 15 16 17 18 19 20 21 21 22 21 21 21 20 19 17 16 15 14 13 13 12 12 11 9 9 9 8 8
3 6 5 5 6 4 3 4 5 5 5 5 4 3 1 4 4 3 5 5 7 9 8 9 12 14 11 7 8 8 8 11 14 16 17 18 19 21 23 24 26 26 25 26 24 23 22 21 20 18 16 15 15 15 14 14 13 13 13 12 11 9 9
4 6 6 5 5 1 5 5 6 8 7 4 3 3 1 4 6 1 4 7 9 9 8 7 6 7 6 5 8 10 9 12 16 18 20 21 21 23 23 24 26 25 24 24 22 21 20 19 17 15 14 13 14 15 15 14 14 14 14 14 13 12 11
3 4 5 3 1 3 6 7 8 8 7 4 4 4 1 6 8 4 0 5 10 11 12 10 3 1 2 3 9 13 11 12 16 19 21 22 22 22 22 22 23 23 22 22 20 19 19 17 15 12 11 11 12 13 13 12 14 14 13 12 11 10 9
2 3 5 2 3 4 7 9 8 7 5 4 4 2 2 8 10 6 3 4 8 10 14 12 6 6 8 6 8 13 13 12 15 16 17 18 18 18 19 20 19 18 19 19 18 17 16 14 12 10 8 9 10 10 10 10 11 12 12 11 9 8 7
1 2 4 2 4 5 10 11 6 6 5 3 2 5 6 9 9 6 4 3 6 8 10 9 6 8 11 11 13 16 14 14 15 15 15 16 16 17 17 17 15 15 16 16 15 15 14 12 10 8 6 7 8 8 8 8 9 9 9 8 7 6 5
2 3 4 3 2 6 13 11 4 4 5 3 6 9 8 7 6 4 3 2 3 6 7 7 8 11 15 16 17 18 17 15 14 13 12 13 15 16 16 14 13 13 14 14 13 12 11 9 9 7 5 6 7 6 7 8 8 7 6 5 5 4 4
3 2 0 2 3 6 11 9 4 5 7 6 7 9 8 6 5 2 1 0 2 4 5 6 8 11 14 14 14 16 17 16 14 13 12 13 14 15 15 13 12 11 11 11 10 9 8 6 6 5 4 5 6 5 6 7 6 6 5 5 4 4 3
2 3 4 5 4 5 7 7 6 6 7 7 7 7 6 5 4 2 1 2 4 5 7 9 10 11 11 10 9 10 13 14 14 14 14 14 14 14 13 12 11 10 10 9 7 5 4 4 4 4 5 6 5 5 6 6 5 5 5 5 5 4 4
2 2 3 4 4 5 5 5 5 6 7 8 8 6 5 5 4 3 3 7 10 11 12 13 12 9 6 7 9 10 11 12 12 11 11 11 12 13 12 10 8 6 5 5 4 4 4 4 4 4 4 4 4 4 5 6 6 6 6 6 6 5 5
1 2 3 4 4 5 5 4 4 6 8 9 9 7 7 6 5 5 6 8 10 10 10 9 9 10 12 12 12 10 8 9 11 11 12 13 13 13 11 9 7 5 2 1 2 3 2 1 2 3 2 2 2 3 5 6 6 6 6 6 6 6 5
1 2 5 5 4 5 6 5 5 6 8 10 10 9 8 8 7 7 7 5 5 5 6 8 11 12 14 16 16 13 13 17 18 16 15 15 14 12 10 9 8 6 2 1 1 2 2 1 1 0 1 1 2 3 4 4 5 5 6 6 5 6 6
2 3 6 5 4 5 6 7 8 8 7 9 10 10 9 8 7 6 5 4 3 2 4 7 11 13 14 16 16 13 13 19 21 20 19 19 16 13 11 9 8 6 3 2 2 3 2 2 2 2 2 2 2 3 3 3 3 3 4 4 4 5 5
3 2 5 4 2 3 6 8 8 9 8 8 10 11 10 9 7 5 3 2 1 1 2 6 9 11 15 19 19 14 12 17 22 24 24 23 19 14 13 11 9 7 5 4 4 4 4 3 3 4 4 4 4 4 3 3 3 3 3 3 2 3 3
3 5 5 3 1 3 7 8 7 8 9 9 10 12 11 10 9 7 5 3 2 1 2 5 7 8 11 17 20 16 14 18 22 25 25 24 19 15 15 15 12 9 7 5 5 6 5 4 5 6 6 6 6 6 5 5 5 4 4 4 4 3 3
2 4 5 3 2 5 7 6 6 6 7 7 9 10 10 10 10 8 8 7 5 3 1 3 5 7 8 11 15 15 16 18 22 25 26 23 18 15 16 17 14 11 8 8 8 8 7 7 8 8 8 7 7 7 7 7 7 7 7 7 6 6 5
1 4 5 5 5 7 7 5 5 6 5 6 7 7 7 7 7 7 7 7 6 6 4 1 2 5 6 7 9 12 14 18 22 26 26 23 17 16 17 18 14 11 10 10 10 10 9 9 9 9 8 8 7 7 7 7 7 8 8 8 8 8 6
Wind_Direction
194 203 211 213 222 215 180 200 217 228 254 249 231 233 246 262 257 217 203 233 218 149 157 155 162 190 188 193 199 189 181 179 182 186 188 190 191 190 190 192 194 194 195 198 200 202 205 206 204 203 205 210 214 214 214 213 211 211 212 213 215 215 213
194 209 216 204 216 229 192 204 210 198 252 264 239 236 228 227 245 222 196 229 229 198 184 162 168 169 157 174 182 175 173 174 178 182 185 188 190 190 190 191 194 195 196 198 200 203 204 204 206 209 211 211 211 213 214 214 213 212 212 214 217 218 216
175 183 216 205 207 222 241 281 219 191 209 224 214 238 234 220 237 227 200 225 240 229 195 159 163 134 119 145 159 163 167 171 177 180 181 184 185 186 188 190 190 191 194 197 202 206 204 204 210 213 214 214 213 215 216 215 215 214 212 212 216 220 219
162 175 205 206 193 206 236 282 234 203 227 232 213 224 233 233 240 230 213 219 228 232 135 125 129 109 109 136 148 161 164 167 175 174 172 173 176 182 185 185 185 191 201 204 205 210 207 205 212 213 215 219 217 217 219 216 214 213 212 211 213 220 220
181 194 198 211 200 188 204 225 219 206 219 239 235 224 223 239 247 233 229 228 203 96 65 94 111 109 107 128 144 158 158 162 169 172 173 173 177 183 181 183 192 200 210 213 210 213 212 210 217 219 221 225 222 222 223 219 215 212 210 210 213 219 219
202 189 180 224 260 213 200 204 215 213 210 221 229 221 215 231 248 240 241 242 184 86 78 102 114 122 123 135 151 156 156 158 161 171 181 179 179 182 177 185 198 199 205 211 204 204 211 212 219 224 227 229 227 227 228 226 221 216 211 209 214 220 222
210 90 127 250 305 270 225 214 219 216 211 215 220 221 210 216 238 246 260 258 157 95 111 109 111 123 126 144 162 162 162 165 164 171 179 175 173 175 175 183 191 190 200 211 206 204 212 215 219 225 228 230 230 230 232 232 228 223 216 212 217 225 228
189 88 136 190 241 237 231 225 226 229 227 221 223 238 234 222 227 225 237 247 190 108 109 108 116 129 132 149 165 164 165 168 173 171 169 169 169 174 180 180 182 188 197 204 206 211 216 218 220 223 226 228 229 231 233 234 233 229 222 217 222 230 230
184 166 167 174 190 210 221 221 231 269 266 247 242 258 258 242 231 217 221 236 178 116 127 136 140 144 144 155 161 159 159 161 168 163 152 160 169 175 181 178 178 191 197 197 204 212 216 217 218 220 224 227 229 231 235 236 235 232 226 222 227 233 232
207 190 179 176 181 192 204 222 247 263 252 244 243 243 236 236 233 222 229 237 128 125 158 161 159 163 158 159 158 151 145 145 157 159 151 159 170 176 180 179 176 185 192 197 205 210 211 213 215 217 221 222 222 226 231 232 230 228 226 224 227 233 234
223 88 84 50 33 168 174 173 200 217 222 234 240 236 235 236 229 227 233 232 162 153 172 172 168 170 163 158 159 154 147 141 146 152 156 163 169 174 178 181 181 179 183 194 203 207 210 212 214 217 219 220 221 224 227 231 231 226 227 229 228 230 233
87 86 95 87 72 95 100 99 133 179 184 213 227 232 265 272 239 231 210 206 211 186 171 174 174 169 164 164 168 161 150 145 141 141 147 153 158 166 171 174 180 182 185 192 198 203 207 212 218 223 224 225 227 227 228 233 232 225 224 229 227 225 229
101 97 107 107 98 88 76 60 46 72 161 199 227 236 339 333 258 258 193 206 223 192 160 167 168 165 170 171 164 150 141 143 143 142 145 142 142 150 155 157 163 169 177 188 192 195 199 204 214 222 226 229 231 231 231 233 233 230 230 230 227 222 222
125 113 115 114 105 96 85 65 46 45 102 118 161 52 19 355 302 308 236 205 196 130 144 149 149 158 168 165 151 141 147 151 147 148 150 143 138 140 141 142 150 156 165 175 176 179 187 193 198 208 218 225 229 230 231 230 231 232 232 231 230 226 224
152 118 105 113 111 93 82 68 47 40 55 65 61 42 14 349 352 341 212 175 121 106 127 129 137 153 163 163 152 142 146 151 152 153 149 144 141 137 134 135 142 147 150 154 159 164 172 178 182 187 199 209 214 218 222 222 223 227 229 229 230 229 230
186 129 15 57 15 267 124 69 38 31 38 40 51 44 13 355 359 235 188 174 134 121 127 129 137 152 165 164 151 141 141 142 141 134 126 130 129 121 117 120 128 136 140 148 160 170 173 177 184 191 203 212 213 216 221 220 220 224 228 230 231 230 232
217 214 296 307 297 263 203 68 25 19 31 33 48 53 29 12 345 280 204 49 69 122 150 145 141 158 171 162 148 146 146 137 125 117 114 117 115 111 112 116 122 128 135 146 158 166 169 173 182 193 207 216 215 219 224 223 222 224 226 227 228 227 230
231 211 265 278 258 245 189 56 13 359 14 17 31 49 50 39 3 343 333 360 58 152 178 160 152 168 164 147 145 148 145 139 130 124 122 119 112 109 112 114 118 123 127 132 138 143 145 145 150 157 162 177 190 204 217 219 220 224 224 222 223 222 220
243 197 234 243 227 189 79 58 16 352 343 347 16 55 56 39 14 359 322 295 151 191 186 151 152 165 144 132 139 138 138 141 133 127 125 119 113 111 111 113 116 119 120 119 114 111 109 105 105 105 105 115 133 148 171 186 197 211 218 218 221 223 222
243 214 219 229 210 102 104 78 24 8 338 332 335 105 65 29 4 2 5 115 154 194 181 147 150 158 139 128 123 117 125 133 130 129 126 119 116 113 112 113 115 116 115 113 110 108 107 108 108 106 106 108 107 107 115 125 140 172 199 206 210 216 219
242 239 223 213 193 151 144 95 32 16 354 351 334 282 74 35 2 41 72 117 151 175 173 155 156 155 141 130 120 113 118 123 126 128 124 120 118 117 116 117 116 115 111 108 107 108 108 108 109 110 113 116 113 107 105 106 112 124 141 157 169 173 176
239 251 230 214 224 204 124 70 35 2 346 349 324 275 94 26 1 71 108 131 152 168 172 168 170 168 158 146 132 124 118 120 125 127 123 120 119 118 118 118 116 114 110 106 104 103 101 99 100 102 107 113 115 112 110 111 116 121 123 123 123 124 127
234 248 237 226 233 207 63 39 4 348 347 348 298 234 144 8 345 19 128 142 156 166 159 151 175 191 187 157 124 119 120 125 128 126 124 124 124 122 120 120 118 116 111 108 104 101 99 97 97 99 102 107 111 108 105 109 116 117 115 114 117 118 115
226 251 249 234 172 75 40 5 347 349 351 326 269 221 131 359 335 323 63 155 163 160 147 141 126 85 125 95 95 104 112 124 127 123 122 126 126 123 123 122 119 116 113 110 106 103 102 100 99 102 104 109 112 111 109 112 115 113 110 107 106 103 96
214 244 247 214 102 60 7 350 350 352 331 277 261 247 350 334 321 313 304 191 172 161 160 164 150 120 135 140 124 120 113 111 118 117 118 123 121 119 121 120 116 116 116 113 108 104 101 97 94 95 100 102 104 109 115 117 113 110 107 104 99 88 79
293 252 251 221 117 51 351 336 340 344 312 247 305 343 324 314 311 301 285 230 187 178 177 173 143 132 149 158 154 147 132 118 119 117 116 120 122 122 122 118 115 118 116 110 104 100 96 92 89 85 85 92 99 108 116 111 103 101 99 98 96 87 76
284 234 246 250 126 43 355 335 329 4 355 345 345 336 323 323 320 292 277 266 196 189 181 161 137 137 144 145 147 151 148 139 132 128 128 131 129 125 121 116 115 117 112 106 102 99 98 97 98 94 85 89 96 106 111 106 101 100 94 88 87 78 71
292 248 144 32 47 30 6 357 26 35 9 351 334 326 327 342 340 304 297 34 189 195 187 166 142 130 129 132 138 145 148 149 149 151 157 155 142 132 128 123 118 114 110 107 102 98 98 94 92 88 76 75 82 88 92 91 92 95 93 89 83 72 63
358 6 46 55 48 35 26 30 41 26 3 354 344 330 326 338 351 7 65 91 106 131 145 137 121 109 99 95 105 125 138 146 152 160 171 173 163 154 150 143 133 119 107 99 83 67 65 62 63 59 49 53 64 75 79 77 72 71 74 77 79 74 64
86 63 57 69 64 49 51 62 55 29 16 14 10 6 8 10 17 44 117 124 118 127 136 129 119 123 122 107 105 109 115 123 128 137 152 164 167 167 169 169 164 146 111 85 51 26 23 28 34 40 43 46 56 70 76 76 72 67 64 65 69 73 71
193 138 92 84 70 49 50 71 75 50 33 31 33 39 47 48 52 76 114 137 145 156 168 170 173 190 202 190 163 143 144 155 157 160 160 159 162 168 171 173 175 174 161 58 15 354 356 36 44 38 48 57 67 80 81 80 80 77 71 64 58 58 64
265 109 105 106 94 72 60 57 63 56 42 43 47 53 61 68 78 91 103 126 153 168 187 197 196 198 204 195 175 169 191 199 195 193 188 181 178 178 173 166 166 175 204 288 325 315 293 198 182 120 113 102 93 95 87 81 82 79 78 76 66 57 53
238 144 137 149 147 113 86 66 61 59 54 54 57 60 66 72 80 91 98 104 124 151 173 182 180 182 191 190 177 176 202 209 202 200 201 199 198 195 189 186 186 189 210 261 275 266 243 216 205 173 143 126 109 101 91 87 86 76 76 82 81 78 71
258 95 116 140 166 110 89 76 67 63 63 65 66 65 65 67 69 72 78 80 89 146 166 174 178 182 189 194 194 202 228 225 213 208 205 202 202 200 192 191 196 199 205 230 245 236 223 206 181 151 136 128 112 99 89 85 83 76 75 73 66 87 100
11 57 73 78 59 87 92 86 74 66 64 65 67 66 64 63 63 62 54 43 21 335 185 186 193 193 194 203 213 224 235 230 220 212 205 202 206 208 197 189 194 203 207 209 209 202 190 173 155 138 130 124 112 99 89 81 76 74 77 79 73 70 74
33 77 75 69 84 110 112 100 76 66 63 62 64 63 61 61 61 61 56 50 39 25 40 187 204 206 204 214 223 223 223 225 222 213 205 204 210 217 207 197 196 202 205 200 191 181 169 159 149 138 132 125 112 102 92 82 76 72 69 72 76 75 69
121 104 90 91 103 112 118 114 87 70 62 61 60 54 50 52 54 55 55 50 44 37 37 59 214 221 212 210 215 213 214 221 221 213 207 208 215 220 214 207 205 205 203 199 191 177 166 160 154 147 141 131 118 108 97 83 75 70 64 62 63 63 62